Simultaneous Nadir Overpasses (SNOs) Predictions

Prediction of SNOs between FY3D and AQUA Satellite Orbit:

Table of predicted SNOs for the next 14.0 days since TLE Epoch: 2/26/2022
Index Date (FY3D) Time (FY3D) Lat,Lon (FY3D) SZA (FY3D ) Date (AQUA) Time (AQUA) Lat,Lon (AQUA) SZA (AQUA ) Distance(km) Time Diff (sec)
1 02/26/2022 09:31:46 73.96, 31.04 82.74 02/26/2022 09:32:22 73.97, 31.05 82.73 0.10 36
2 02/26/2022 10:21:51 -72.00,-157.36 99.39 02/26/2022 10:21:10 -72.00,-157.39 99.38 1.33 41
3 03/01/2022 00:58:51 -73.85, -20.44 98.39 03/01/2022 00:59:15 -73.85, -20.41 98.40 1.02 24
4 03/01/2022 01:49:03 72.08, 150.70 79.70 03/01/2022 01:48:09 72.08, 150.74 79.70 1.60 54
5 03/03/2022 16:26:00 73.80, -72.08 80.54 03/03/2022 16:26:11 73.79, -72.02 80.53 2.24 11
6 03/03/2022 17:16:06 -71.88, 99.33 101.53 03/03/2022 17:15:00 -71.87, 99.38 101.53 1.71 66
7 03/06/2022 07:04:40 79.61, 43.09 86.93 03/06/2022 07:05:53 79.85, 44.19 86.99 34.43 73
8 03/06/2022 07:53:01 -73.50,-123.13 100.82 03/06/2022 07:53:00 -73.50,-123.09 100.83 1.22 1
9 03/06/2022 08:39:24 59.23, 61.62 65.07 03/06/2022 08:38:11 59.10, 60.77 64.84 50.78 73
10 03/08/2022 22:29:48 -74.73, 14.67 100.49 03/08/2022 22:30:52 -74.73, 14.69 100.50 0.44 64
11 03/08/2022 23:20:01 73.05,-173.90 77.67 03/08/2022 23:19:47 73.06,-173.91 77.67 0.57 14
12 03/11/2022 13:56:58 74.74, -37.13 78.49 03/11/2022 13:57:48 74.73, -37.04 78.46 2.74 50



Historial Predications of SNOs between FY3D and AQUA
